Regional Weather Roundup
Issued by NWS

Home | Current Version | Previous Version | Text Only | Print | Product List | Glossary On
Versions: 1 2 3 4 5 6 7 8 9 10 11 12 13 14 15 16 17 18 19 20 21 22 23 24 25 26 27 28 29 30 31 32 33 34 35 36 37 38 39 40 41 42 43 44 45 46 47 48 49 50
000
ASUS42 KFFC 080603
RWRGA
WEATHER ROUNDUP FOR GEORGIA
NATIONAL WEATHER SERVICE PEACHTREE CITY GA
100 AM EST MON FEB 08 2016

NOTE: "FAIR" INDICATES FEW OR NO CLOUDS BELOW 12,000 FEET WITH NO
SIGNIFICANT WEATHER AND/OR OBSTRUCTIONS TO VISIBILITY.

* = USE WITH CAUTION. THE STATIONS MARKED WITH AN ASTERISK MAY NOT
REPORT WEATHER SUCH AS PRECIPITATION, FOG, OR THUNDER AND ARE NOT
QUALITY CONTROLLED BY NWS.

THE REMARK "TC" DENOTES TEMPERATURE READING IN DEGREES CELSIUS.

GAZ001>058-080700-
NORTH GEORGIA

CITY           SKY/WX    TMP DP  RH WIND       PRES   REMARKS
ATLANTA        PTCLDY    42  22  44 W9        29.97S
6HR MIN TEMP:  40; 6HR MAX TEMP:  49;

ATHENS         CLEAR     40  23  50 W5        29.95R
6HR MIN TEMP:  40; 6HR MAX TEMP:  49;

CHAMBLEE       CLEAR     41  24  51 W8        29.96F
6HR MIN TEMP:  38; 6HR MAX TEMP:  49;

PEACHTREE CITY CLEAR     33  26  75 CALM      29.99F
6HR MIN TEMP:  30; 6HR MAX TEMP:  45;

ROME           CLEAR     33  26  75 CALM      29.96F
6HR MIN TEMP:  31; 6HR MAX TEMP:  48;

WEST ATLANTA   CLEAR     37  26  64 SW3       29.97F
6HR MIN TEMP:  35; 6HR MAX TEMP:  50;

GAINESVILLE    PTCLDY    40  22  48 W8        29.94F WCI  34
6HR MIN TEMP:  39; 6HR MAX TEMP:  49;

CARTERSVILLE   CLEAR     31  24  75 CALM      29.97F
6HR MIN TEMP:  30; 6HR MAX TEMP:  46;



CITY           SKY/WX    TMP DP  RH WIND       PRES   REMARKS
MARIETTA       PTCLDY    38  23  55 CALM      29.96F
BLAIRSVILLE*     N/A     29   9  43 CALM      29.93F
$$

GAZ059>098-102>109-080700-
CENTRAL GEORGIA

CITY           SKY/WX    TMP DP  RH WIND       PRES   REMARKS
AUGUSTA-BUSH   CLEAR     41  26  55 W6        29.94F
6HR MIN TEMP:  40; 6HR MAX TEMP:  47;

AUGUSTA-DANIEL CLEAR     47  22  37 W5        29.93F
6HR MIN TEMP:  46; 6HR MAX TEMP:  53;

COLUMBUS       CLEAR     40  25  55 CALM      30.03S
6HR MIN TEMP:  39; 6HR MAX TEMP:  52;

MACON          CLEAR     38  26  62 W6        29.99F WCI  33
6HR MIN TEMP:  37; 6HR MAX TEMP:  49;

ROBINS AFB     CLEAR     39  28  64 CALM      29.99F


CITY           SKY/WX    TMP DP  RH WIND       PRES   REMARKS
LAGRANGE*      CLEAR     33  33  99 CALM      30.01F
SYLVANIA*      CLEAR     40  32  75 CALM      29.97S
MILLEDGEVILLE* CLEAR     37  28  70 CALM      29.98S
$$

GAZ099>101-110>166-080700-
SOUTH GEORGIA

CITY           SKY/WX    TMP DP  RH WIND       PRES   REMARKS
SAVANNAH       CLEAR     37  30  75 W8        29.98F WCI  31
6HR MIN TEMP:  37; 6HR MAX TEMP:  47;

VALDOSTA       CLEAR     37  33  85 CALM      30.05F
6HR MIN TEMP:  37; 6HR MAX TEMP:  45;

ALMA           CLEAR     38  31  76 CALM      30.01F
6HR MIN TEMP:  36; 6HR MAX TEMP:  49;

ST SIMONS      CLEAR     42  34  73 W6        30.00F
6HR MIN TEMP:  42; 6HR MAX TEMP:  49;

FT STEWART     CLEAR     39  31  73 SW7       29.97S WCI  34
ALBANY         CLEAR     36  29  75 W3        30.07S
HUNTER AFB     CLEAR     39  32  74 W7        29.95F WCI  34
MOODY AFB      CLEAR     42  29  60 W6        30.02F
BRUNSWICK      CLEAR     43  32  65 W6        30.02F


CITY           SKY/WX    TMP DP  RH WIND       PRES   REMARKS
BAINBRIDGE*    PTCLDY    37  34  87 CALM      30.07S
MOULTRIE*      CLEAR     41  32  70 CALM      30.06S
VIDALIA*       CLEAR     41  30  65 W5        30.00S
WAYCROSS*      CLEAR     43  34  69 W7        30.02F
DOUGLAS*       CLEAR     41  34  75 CALM      30.04F
$$



USA.gov is the U.S. government's official web portal to all federal, state and local government web resources and services.